Regional Weather Roundup
Issued by NWS Burlington, VT

Home | Current Version | Previous Version | Text Only | Print | Product List | Glossary On
Versions: 1 2 3 4 5 6 7 8 9 10 11 12 13 14 15 16 17 18 19 20 21 22 23 24 25 26 27 28 29 30 31 32 33 34 35 36 37 38 39 40 41 42 43 44 45 46 47 48 49 50
000
ASUS41 KBTV 291330
RWRBTV
VERMONT REGIONAL WEATHER ROUNDUP
NATIONAL WEATHER SERVICE BURLINGTON VT
900 AM EDT SUN MAY 29 2016

NOTE: "FAIR" INDICATES FEW OR NO CLOUDS BELOW 12,000 FEET WITH NO
SIGNIFICANT WEATHER AND/OR OBSTRUCTIONS TO VISIBILITY.

* THESE REPORTS ARE NOT UNDER NWS QUALITY CONTROL AND/OR DO NOT
  REPORT WEATHER SUCH AS PRECIPITATION AND FOG.

VTZ001>019-291400-
_____VERMONT_____


CITY           SKY/WX    TMP DP  RH WIND       PRES   REMARKS
BURLINGTON     FAIR      79  64  60 S6        30.09S
MONTPELIER     CLOUDY    68  62  81 S9        30.21S
MORRISVILLE    FAIR      74  63  68 SW8       30.14F
ST. JOHNSBURY*   N/A     72  62  71 MISG      30.15S
LYNDONVILLE*   FAIR      71  63  76 SE9       30.19F
RUTLAND*       FAIR      73  64  73 E18       30.14
SPRINGFIELD    CLOUDY    67  62  84 NE6       30.19S
HIGHGATE*      FAIR      72  62  69 S3        30.08F
NEWPORT*       FAIR      74  65  73 S9        30.14F
BENNINGTON     FAIR      78  68  71 CALM      30.13S
SUTTON*          N/A     70 N/A N/A MISG        N/A
GALLUP MILLS*    N/A     73 N/A N/A MISG        N/A
UNION VILLAGE*   N/A     70 N/A N/A MISG        N/A
MT. MANSFIELD*   N/A     70 N/A N/A NW8         N/A

_____LAKE CHAMPLAIN_____


CITY           SKY/WX    TMP DP  RH WIND       PRES   REMARKS
BURTON ISLAND*   N/A    N/A N/A N/A NW1         N/A
COLCHESTER RF*   N/A     64  61  88 N6          N/A
DIAMOND ISL*     N/A     70  64  83 NE1         N/A

$$

NYZ007-026>031-035-052-083-087-291400-
_____NORTHERN NEW YORK_____


CITY           SKY/WX    TMP DP  RH WIND       PRES   REMARKS
PLATTSBURGH    SUNNY     70  60  70 SE3       30.09S
SARANAC LAKE   CLOUDY    73  62  68 CALM      30.13S
MASSENA        CLOUDY    65  55  70 NE3       30.10R
OGDENSBURG*    SUNNY     73  66  78 S3        30.07R
STARK FALLS*     N/A     32 N/A N/A SE1         N/A
WATERTOWN      PTSUNNY   74  67  78 CALM      30.07R
ALBANY         PTSUNNY   77  67  71 S8        30.11S
GLENS FALLS    SUNNY     76  66  71 S5        30.11S

$$
NHZ002-005-011-291400-
_____NEW HAMPSHIRE_____


CITY           SKY/WX    TMP DP  RH WIND       PRES   REMARKS
LEBANON        CLOUDY    70  62  76 VRB6      30.18S
MT WASHINGTON  PTSUNNY   57  52  82 SW23        N/A
PLYMOUTH       CLOUDY    67  59  75 SE5       30.22S
WHITEFIELD     SUNNY     76  62  62 NE5       30.17S

$$

_____REGIONAL QUEBEC LOCATIONS_____


CITY           SKY/WX    TMP DP  RH WIND       PRES   REMARKS
MONTREAL       CLOUDY    63  55  77 NE8       30.10S
QUEBEC CITY    CLOUDY    54  52  94 NE14      30.18F
SHERBROOKE     MOSUNNY   70  61  73 E7        30.12F

_____REGIONAL ONTARIO LOCATIONS_____


CITY           SKY/WX    TMP DP  RH WIND       PRES   REMARKS
OTTAWA         PTSUNNY   68  57  68 E7        30.08S

______KEY______
VSB  - VISIBILITY IN MILES
WCI  - WIND CHILL INDEX
HX   - HEAT INDEX
$$
NNNN




USA.gov is the U.S. government's official web portal to all federal, state and local government web resources and services.